Regional Weather Roundup
Issued by NWS

Home | Current Version | Previous Version | Text Only | Print | Product List | Glossary On
Versions: 1 2 3 4 5 6 7 8 9 10 11 12 13 14 15 16 17 18 19 20 21 22 23 24 25 26 27 28 29 30 31 32 33 34 35 36 37 38 39 40 41 42 43 44 45 46 47 48 49 50
000
ASUS43 KMKX 311725
RWRWI

WISCONSIN REGIONAL WEATHER ROUNDUP
NATIONAL WEATHER SERVICE MILWAUKEE/SULLIVAN WI
1200 PM CDT FRI OCT 31 2014

NOTE: "FAIR" INDICATES FEW OR NO CLOUDS BELOW 12,000 FEET WITH NO
SIGNIFICANT WEATHER AND/OR OBSTRUCTIONS TO VISIBILITY.

WIZ001-002-006>008-014>016-023>028-311800-
NORTHWEST WISCONSIN

CITY           SKY/WX    TMP DP  RH WIND       PRES   REMARKS
SUPERIOR ARPT  MOSUNNY   35  20  56 NE9       30.57S WCI  27
ASHLAND        PTSUNNY   34  22  61 NE13      30.54S WCI  25
HAYWARD        MOSUNNY   33  20  58 N16G24    30.51S WCI  23
SIREN          MOSUNNY   34  19  53 NE10G17   30.55S WCI  26
CUMBERLAND     CLOUDY    32  19  59 N9        30.52R WCI  24
RICE LAKE      CLOUDY    35  20  54 N17       30.53R WCI  24
CHETEK         PTSUNNY   36  21  53 N12G18    30.51R WCI  28
LADYSMITH      CLOUDY    34  23  63 NE16      30.49R WCI  24
EAU CLAIRE     CLOUDY    36  18  48 N18G29    30.48S WCI  26
MENOMONIE      MOSUNNY   38  18  45 N14G21    30.51R WCI  29
NEW RICHMOND   SUNNY     36  17  47 N9        30.54R WCI  29
OSCEOLA        SUNNY     35  19  53 NE7       30.58R WCI  29
$$

WIZ003>005-009-010-017-018-311800-
NORTH CENTRAL WISCONSIN

CITY           SKY/WX    TMP DP  RH WIND       PRES   REMARKS
MANITOWISH WTR FLURRIES  29  25  83 N12G17    30.43R WCI  20
ARBOR VITAE    CLOUDY    32  24  74 N18G26    30.42R WCI  20
WOODRUFF       CLOUDY    32  24  74 N18G26    30.42R WCI  20
RHINELANDER    PTSUNNY   29  20  69 N10G20    30.41R WCI  20
EAGLE RIVER    PTSUNNY   30  20  67 N16       30.40R WCI  19
LAND O LAKES   CLOUDY    30  24  78 N12G20    30.41S WCI  21
PHILLIPS       PTSUNNY   31  23  72 N13G21    30.45R WCI  22
TOMAHAWK       MOSUNNY   31  20  63 N13G24    30.42R WCI  21
MEDFORD        CLOUDY    33  19  57 N16G29    30.42R WCI  22
MERRILL        PTSUNNY   33  20  58 N21G32    30.41R WCI  21
$$

WIZ029-030-035-036-043>047-311800-
CENTRAL WISCONSIN

CITY           SKY/WX    TMP DP  RH WIND       PRES   REMARKS
WAUSAU         CLOUDY    33  18  53 N12G30    30.39R WCI  24
MOSINEE        PTSUNNY   32  21  64 N21G29    30.40R WCI  20
MARSHFIELD     CLOUDY    35  19  52 N18G25    30.41R WCI  24
STEVENS POINT  CLOUDY    33  19  57 N16G25    30.39R WCI  22
WAUPACA        CLOUDY    37  21  52 N14G25    30.36R WCI  28
WAUTOMA        CLOUDY    35  19  52 N20G25    30.37R WCI  24
WISC RAPIDS    CLOUDY    37  21  52 N21       30.41R WCI  26
CAMP DOUGLAS   PTSUNNY   37  21  52 N15G26    30.41R WCI  28
$$

WIZ011>013-019>022-031-037>040-048>050-311800-
NORTHEAST WISCONSIN

CITY           SKY/WX    TMP DP  RH WIND       PRES   REMARKS
ANTIGO         CLOUDY    31  21  66 N24G32    30.36R WCI  17
SHAWANO        CLOUDY    38  21  50 N30G38    30.35R WCI  26
OCONTO         CLOUDY    36  21  55 N21G29    30.33R WCI  25
STURGEON BAY   CLOUDY    36  25  64 N31G43    30.29R WCI  22
GREEN BAY      PTSUNNY   37  22  54 N24G36    30.32R WCI  26
MANITOWOC      CLOUDY    36  26  67 N25G38    30.25R WCI  24
APPLETON       PTSUNNY   37  19  48 N29G40    30.31R WCI  25
CLINTONVILLE   CLOUDY    36  21  55 N16G24    30.35R WCI  26
OSHKOSH        CLOUDY    36  21  54 N28G35    30.31R WCI  23
$$

WIZ032>034-041-042-053>061-311800-
SOUTHWEST WISCONSIN

CITY           SKY/WX    TMP DP  RH WIND       PRES   REMARKS
LA CROSSE      CLOUDY    38  20  48 N18G24    30.47S WCI  28
SPARTA         CLOUDY    35  19  50 N18G28    30.45R WCI  25
VIROQUA        CLOUDY    36  21  55 N16G26    30.41R WCI  26
BOSCOBEL       PTSUNNY   39  19  44 N15G28    30.42R WCI  31
PRAIRIE DU CHI PTSUNNY   38  19  45 N14G25    30.42F WCI  29
PLATTEVILLE    MOSUNNY   39  20  46 N23G33    30.35S WCI  28
$$

WIZ056-057-062-063-064-067-068-311800-
SOUTH CENTRAL WISCONSIN

CITY           SKY/WX    TMP DP  RH WIND       PRES   REMARKS
REEDSBURG      CLOUDY    37  21  52 N15       30.37S WCI  28
BARABOO/DELLS  CLOUDY    36  20  52 N17G24    30.36R WCI  26
LONE ROCK      MOSUNNY   42  17  36 N22G31    30.38R
MINERAL POINT  MOSUNNY   39  18  41 N22G36    30.34R WCI  29
MADISON        PTSUNNY   36  20  52 N28G39    30.33R WCI  23
MIDDLETON      CLOUDY    37  21  50 N21G29    30.34R WCI  27
WATERTOWN      CLOUDY    35  22  58 N22G35    30.28R WCI  24
MONROE         PTSUNNY   36  23  60 N24G35    30.30R WCI  24
JANESVILLE     PTSUNNY   37  19  48 N29G35    30.27R WCI  25
$$

WIZ051-052-058>065-066-070>072-311800-
SOUTHEAST WISCONSIN

CITY           SKY/WX    TMP DP  RH WIND       PRES   REMARKS
MILWAUKEE      CLOUDY    37  23  56 N26G41    30.21R WCI  25
WAUKESHA       CLOUDY    34  21  60 N22G32    30.25R WCI  22
MILWAUKEE/TIMM CLOUDY    37  21  52 N29G38    30.23R WCI  25
RACINE         LGT RAIN  38  25  59 N28G45    30.20R WCI  26
BURLINGTON     CLOUDY    35  22  59 N20G33    30.23R WCI  24
KENOSHA        CLOUDY    38  24  57 N29G40    30.19R WCI  26
FOND DU LAC    CLOUDY    37  20  50 N26G37    30.31R WCI  25
SHEBOYGAN      MIX PCPN  35  24  64 N20G30    30.25R WCI  24
WEST BEND      CLOUDY    34  23  64 N21G32    30.25R WCI  22
JUNEAU         MOSUNNY   37  22  55 N26G35    30.29S WCI  24
$$

LSZ147-162-311800-
LAKE SUPERIOR

STATION/POSITION TIME  TEMP    WIND        PRES    WAVE
                       AIR SEA DIR/SP/G            HT/PER
                 (UTC) (F)     (DEG/KT/KT) (MB)    (FT/S)
W MID LAKE BUOY  1650   33 43  350/ 14/ 17 1034.3R   6/ 8
DEVILS ISLAND    1700   33      20/ 12/ 16 1035.3F
PORT WING        1640   33      30/ 10/ 17 1034.9R
SAXON HARBOR     1613   36      10/ 17/ 26 1033.2R
$$

LMZ867-665-643>646-311800-
LAKE MICHIGAN

STATION/POSITION TIME  TEMP    WIND        PRES    WAVE
                       AIR SEA DIR/SP/G            HT/PER
                 (UTC) (F)     (DEG/KT/KT) (MB)    (FT/S)
CHAMBERS ISLAND  1600   36     340/ 30/ 36 1025.4R
N MID LAKE BUOY  1450   36 49   10/ 31/ 39 1022.9    9/ 7
NORTHPORT PIER   1712   37     350/ 28/ 36 1025.7S
KEWAUNEE LAKESHO 1700   36      10/ 21/ 28 1024.3R
SHEBOYGAN LAKESH 1700   37 48  360/ 37/ 42 1024.8R
PORT WASHINGTON  1610   38     350/ 15/ 26 1024.0R
ATWATER BUOY     1700   40     360/ 31     1023.3R
MILWAUKEE LAKESH 1700   38     340/ 21/ 30   N/A
S MID LAKE BUOY  1650   41 50  350/ 37/ 47 1017.8R  19/11
KENOSHA   LAKESH 1700   38     340/ 32/ 41 1020.7R
$$

TC  - TEMPERATURE IN CELSIUS
VSB - VISIBILITY IN STATUTE MILES
WCI - WIND CHILL INDEX
HX  - HEAT INDEX




USA.gov is the U.S. government's official web portal to all federal, state and local government web resources and services.